Orbital Elements at Epoch 2459200.5 (2020-Dec-17.0) TDB
Reference: JPL 16 (heliocentric ecliptic J2000)
Element | Value | Uncertainty (1-sigma) | Units |
e | .1341897067191527 | 4.5119e-08 | |
a | 3.095902040303452 | 2.4351e-08 | au |
q | 2.680463853483905 | 1.5084e-07 | au |
i | 5.863101768294314 | 4.2556e-06 | deg |
node | 113.8269707828467 | 6.2086e-05 | deg |
peri | 187.8781904612518 | 6.6983e-05 | deg |
M | 334.7467169489669 | 2.5292e-05 | deg |
tp | 2459340.070806564707 (2021-May-05.57080656) | 0.00013976 | TDB |
period | 1989.661710984507 5.45 | 2.3475e-05 6.427e-08 | d yr |
n | .1809352806120333 | 2.1347e-09 | deg/d |
Q | 3.511340227122998 | 2.7619e-08 | au |
|
| | Orbit Determination Parameters
Additional Information
|